#timestamp,LO_Frequency,Hit 
1499371215.6,286045224.1,N
1499371235.4,286045223.8,N
1499371255.3,286045224.2,N
1499371275.1,286045224.2,N
1499371295.9,286045223.9,N
1499371315.7,286045226.4,N
1499371335.5,286045226.3,N
1499371355.4,286045226.5,N
1499371375.2,286045223.7,N
1499371395.1,286045224.4,N
1499371396.0,286045224.4,N
1499371415.8,286045224.2,N
1499371435.6,286045224.1,N
1499371455.5,286045226.5,N
1499371475.3,286045226.2,N
1499371495.1,286045226.4,N
1499371515.9,286045224.0,N
1499371535.7,286045224.3,N
1499371555.6,286045226.6,N
1499371575.4,286045226.1,N
1499371595.2,286045226.8,N
1499371615.1,286045225.0,N
1499371616.0,286045225.0,N
1499371635.8,286045224.2,N
1499371655.7,286045224.0,N
1499371675.5,286045223.8,N
1499371695.3,286045224.0,N
1499371715.2,286045223.8,N
1499371735.0,286045224.1,N
1499371735.9,286045224.1,N
1499371755.7,286045225.5,N
1499371775.6,286045225.6,N
1499371795.4,286045225.8,N
1499371815.3,286045226.3,N
1499371835.1,286045225.5,N
1499371836.0,286045225.5,N
1499371855.8,286045230.7,N
1499371875.7,286045231.3,N
1499371895.5,286045232.2,N
1499371915.4,286045234.8,N
1499371935.2,286045232.9,N
1499371955.0,286045230.7,N
1499371955.9,286045230.7,N
1499371975.8,286045229.3,N
1499371995.6,286045230.0,N
1499372045.5,286045229.6,Y
1499372055.4,286046027.1,N
1499372075.2,286046999.3,N
1499372095.1,286046998.7,N
1499372096.0,286046998.7,N
1499372115.8,286046998.2,N
1499372135.7,286047000.8,N
1499372155.5,286046998.4,N
1499372175.3,286046998.4,N
1499372195.2,286046999.5,N
1499372215.0,286046998.4,N
1499372215.9,286046998.4,N
1499372235.7,286046998.8,N
1499372255.6,286046999.0,N
1499372275.4,286046999.0,N
1499372295.3,286046998.3,N
1499372315.1,286046998.7,N
1499372316.0,286046998.7,N
1499372335.8,286046998.7,N
1499372355.7,286046998.3,N
1499372375.5,286046998.9,N
1499372395.4,286046999.6,N
1499372415.2,286046999.2,N
1499372435.0,286046997.3,N
1499372435.9,286046997.3,N
1499372455.8,286046999.6,N
1499372475.6,286046998.9,N
1499372495.4,286046998.7,N
1499372515.3,286046998.8,N
1499372535.1,286046998.8,N
1499372555.9,286046999.5,N
1499372575.7,286046999.5,N
1499372595.5,286046999.5,N
1499372615.4,286046999.0,N
1499372635.2,286046996.7,N
1499372655.0,286046997.2,N
1499372656.0,286046997.2,N
1499372675.8,286046996.8,N
1499372695.6,286046997.1,N
1499372715.5,286046997.3,N
1499372735.3,286046997.6,N
1499372755.1,286046997.5,N
1499372775.9,286046997.2,N
1499372795.7,286046997.3,N
1499372815.5,286046996.8,N
1499372835.4,286046997.2,N
1499372855.2,286046999.1,N
1499372875.1,286046999.6,N
1499372876.0,286046999.6,N
1499372895.8,286046999.3,N
1499372915.6,286046998.6,N
1499372935.5,286046998.1,N
1499372955.3,286046998.1,N
1499372975.2,286046999.0,N
1499372995.9,286046998.7,N
1499373015.7,286046998.8,N
1499373035.6,286047001.2,N
1499373055.4,286046999.0,N
1499373075.2,286046999.1,N
1499373095.1,286046996.6,N
1499373096.0,286046996.6,N
1499373115.8,286046998.8,N
1499373135.7,286046998.9,N
1499373155.5,286046997.4,N
1499373175.3,286046999.1,N
1499373195.2,286046997.1,N
1499373215.0,286046997.1,N
1499373215.9,286046997.1,N
1499373235.7,286046997.9,N
1499373255.6,286046998.0,N
1499373275.4,286046998.0,N
1499373295.3,286046997.9,N
1499373315.1,286046995.0,N
1499373316.0,286046995.0,N
1499373335.8,286046995.8,N
1499373355.7,286046995.9,N
1499373375.5,286046993.7,N
1499373395.3,286046994.0,N
1499373415.2,286046993.6,N
1499373435.0,286046995.9,N
1499373435.9,286046995.9,N
1499373455.8,286046995.9,N
1499373475.6,286046996.4,N
1499373495.4,286046996.4,N
1499373515.3,286046995.2,N
1499373535.1,286046995.1,N
1499373555.9,286046993.6,N
1499373575.7,286046993.4,N
1499373595.5,286046996.3,N
1499373615.4,286046993.6,N
1499373635.2,286046991.9,N
1499373655.0,286046991.9,N
1499373655.9,286046991.9,N
1499373675.8,286046994.3,N
1499373695.6,286046992.7,N
1499373715.5,286046990.4,N
1499373735.3,286046990.7,N
1499373755.1,286046992.5,N
1499373775.9,286046992.8,N
1499373795.7,286046991.8,N
1499373815.6,286046994.4,N
1499373835.4,286046994.8,N
1499373855.2,286046992.7,N
1499373875.1,286046991.0,N
1499373876.0,286046991.0,N
1499373895.8,286046990.5,N
1499373915.7,286046991.0,N
1499373935.5,286046990.8,N
1499373955.3,286046990.9,N
1499373975.2,286046989.0,N
1499373995.0,286046989.8,N
1499373995.9,286046989.8,N
1499374015.8,286046986.9,N
1499374035.6,286046989.3,N
1499374055.4,286046988.8,N
1499374075.3,286046991.5,N
1499374095.1,286046991.4,N
1499374115.8,286046993.2,N
1499374135.7,286046990.5,N
1499374155.5,286046991.5,N
1499374175.4,286046989.5,N
1499374195.2,286046989.3,N
1499374215.0,286046990.0,N
1499374215.9,286046990.0,N
1499374235.8,286046987.1,N
1499374255.6,286046987.2,N
1499374275.4,286046987.6,N
1499374295.3,286046987.7,N
1499374315.1,286046990.0,N
1499374335.9,286046986.9,N
1499374355.7,286046989.6,N
1499374375.5,286046987.2,N
1499374395.4,286046989.8,N
1499374415.2,286046987.0,N
1499374435.0,286046987.6,N
1499374436.0,286046987.6,N
1499374455.8,286046993.1,N
1499374475.6,286046993.7,N
1499374495.5,286046994.1,N
1499374515.3,286046992.5,N
1499374535.1,286046990.7,N
1499374555.9,286046988.7,N
1499374575.7,286046989.3,N
1499374595.6,286046987.1,N
1499374615.4,286046987.2,N
1499374635.2,286046987.5,N
1499374655.1,286046987.4,N
1499374656.0,286046987.4,N
1499374675.8,286046986.9,N
1499374695.6,286046989.9,N
1499374715.5,286046989.6,N
1499374735.3,286046989.9,N
1499374755.2,286046989.4,N
1499374775.9,286046989.3,N
1499374795.7,286046989.8,N
